Weather History for CXRB - July, 2013

Change the Weather History Date:

Monday, July 29, 2013

  Actual Average Record
Temperature  
Mean Temperature 33 °F -  
Max Temperature 36 °F - - ()
Min Temperature 30 °F - - ()
Degree Days  
Heating Degree Days 32    
Moisture  
Dew Point 31 °F    
Average Humidity 92    
Maximum Humidity 100    
Minimum Humidity 79    
Precipitation  
Precipitation 0.00 in - - ()
Sea Level Pressure  
Sea Level Pressure 30.05 in    
Wind  
Wind Speed 8 mph ()    
Max Wind Speed 10 mph    
Max Gust Speed -    
T = Trace of Precipitation, MM = Missing Value Source: Averaged Metar Reports

Daily Weather History Graph

Daily Weather History Graph

Search for Another Location

Airport or City:

Trip Planner

Search our weather history database for the weather conditions in past years. The results will help you decide how hot, cold, wet, or windy it might be!

Date:

Astronomy

Dec. 31, 1969 Rise Set
Actual Time Sun does not set Sun does not set
Civil Twilight Sun does not set Sun does not set
Nautical Twilight Sun does not set Sun does not set
Astronomical Twilight Sun does not set Sun does not set
Moon 6:57 PM MDT (7/29) 5:25 PM MDT (7/29)
Length of Visible Light 24h 00m
Length of Day
24h 00m
Waning Gibbous, 50% of the Moon is Illuminated
Jul 29
Waning Gibbous
Aug 6
New
Aug 14
First Quarter
Aug 20
Full
Aug 28
Last Quarter

Hourly Weather History & Observations

Time (MDT) Temp. Windchill Dew Point Humidity Pressure Visibility Wind Dir Wind Speed Gust Speed Precip Events Conditions
12:00 AM 31 °F - 30 °F 93% 30.00 in - WSW 9.2 mph - -  
12:00 AM 30.6 °F 22.4 °F 29.7 °F 96% 30.00 in - WSW 9.2 mph - N/A   Unknown
1:00 AM 30.9 °F 23.5 °F 30.4 °F 98% 30.00 in - WSW 8.1 mph - N/A   Unknown
2:00 AM 31.1 °F 22.4 °F 30.6 °F 98% 30.01 in - WSW 10.4 mph - N/A   Unknown
3:00 AM 31.3 °F 23.3 °F 30.7 °F 98% 30.01 in - WSW 9.2 mph - N/A   Unknown
4:00 AM 31.1 °F 23.1 °F 30.7 °F 99% 30.01 in - WSW 9.2 mph - N/A   Unknown
5:00 AM 31.3 °F 25.6 °F 30.9 °F 99% 30.02 in - SW 5.8 mph - N/A   Unknown
6:00 AM 31 °F - 31 °F 100% 30.03 in - SW 6.9 mph - -  
6:00 AM 31.3 °F 24.7 °F 30.9 °F 99% 30.03 in - SW 6.9 mph - N/A   Unknown
7:00 AM 31.6 °F 24.4 °F 31.1 °F 98% 30.03 in - SSW 8.1 mph - N/A   Unknown
8:00 AM 31.6 °F 23.7 °F 31.6 °F 100% 30.04 in - SSW 9.2 mph - N/A   Unknown
9:00 AM 33.4 °F 25.9 °F 31.6 °F 93% 30.04 in - SW 9.2 mph - N/A   Unknown
10:00 AM 33.1 °F 26.1 °F 31.6 °F 94% 30.04 in - South 8.1 mph - N/A   Unknown
11:00 AM 33.6 °F 26.8 °F 31.5 °F 92% 30.04 in - South 8.1 mph - N/A   Unknown
12:00 PM 35 °F - 31 °F 79% 30.05 in - SSW 6.9 mph - -  
12:00 PM 34.7 °F 28.8 °F 30.9 °F 86% 30.05 in - SSW 6.9 mph - N/A   Unknown
1:00 PM 35.4 °F 28.4 °F 31.3 °F 85% 30.06 in - South 9.2 mph - N/A   Unknown
2:00 PM 35.1 °F 28.6 °F 31.5 °F 87% 30.06 in - SSE 8.1 mph - N/A   Unknown
3:00 PM 34.9 °F 27.1 °F 30.9 °F 85% 30.07 in - SSE 10.4 mph - N/A   Unknown
4:00 PM 33.6 °F 26.2 °F 30.6 °F 89% 30.08 in - SSE 9.2 mph - N/A   Unknown
5:00 PM 34.7 °F 28.8 °F 32.0 °F 90% 30.07 in - SSE 6.9 mph - N/A   Unknown
6:00 PM 35 °F - 32 °F 86% 30.08 in - SSE 6.9 mph - -  
6:00 PM 34.7 °F 28.8 °F 31.6 °F 89% 30.08 in - SSE 6.9 mph - N/A   Unknown
7:00 PM 34.0 °F 26.0 °F 31.8 °F 92% 30.08 in - SSE 10.4 mph - N/A   Unknown
8:00 PM 34.5 °F 27.3 °F 31.8 °F 90% 30.08 in - SE 9.2 mph - N/A   Unknown
9:00 PM 35.4 °F 29.0 °F 31.6 °F 86% 30.07 in - SE 8.1 mph - N/A   Unknown
10:00 PM 36.0 °F 30.3 °F 31.5 °F 84% 30.07 in - SE 6.9 mph - N/A   Unknown
11:00 PM 36.7 °F 30.5 °F 31.5 °F 81% 30.07 in - SE 8.1 mph - N/A   Unknown